User: anonymous
Location: Caltech
(34.1382°N, 118.1253°W)
Time: 01:38:52
(UTC-07:00)
Language:

Cosmos 2251 Rocket - Orbit

View from above orbital plane
View from above orbital plane
View from above satellite
View from above satellite

Ground track
Ground track

The orbit data is extracted from the following two-line orbital elements,

1 22676U 93036B   14209.73584177  .00000082  00000-0  38819-4 0  2796
2 22676 074.0448 309.9857 0019565 237.5763 122.3496 14.33622735104213
Epoch (UTC): 28 July 2014 17:39:36
Eccentricity: 0.0019565
inclination: 74.0448°
perigee height: 765 km
apogee height: 793 km
right ascension of ascending node: 309.9857°
argument of perigee: 237.5763°
revolutions per day: 14.33622735
mean anomaly at epoch: 122.3496°
orbit number at epoch: 10421

The dashed part of the orbit path shows where the satellite is in the earth's shadow,  

DLR